Terminal Aerodrome Forecast
Issued by NWS Raleigh/Durham, NC

Home | Current Version | Previous Version | Text Only | Print | Product List | Glossary On
Versions: 1 2 3 4 5 6 7 8 9 10 11 12 13 14 15 16 17 18 19 20 21 22 23 24 25 26 27 28 29 30 31 32 33 34 35 36 37 38 39 40 41 42 43 44 45
000
FTUS42 KRAH 191126
TAFRDU
TAF
KRDU 191126Z 1912/2012 08008KT P6SM OVC060
     FM191900 09009KT P6SM SCT050
      TEMPO 1919/1923 BKN050
     FM200900 04005KT P6SM SKC=

USA.gov is the U.S. government's official web portal to all federal, state and local government web resources and services.